Theta_e
335 330 330 328 316 315 308 308 313 311 312 317 319 317 315 317 314 312 338 340 341 343 345 347 348 348 345 343 340 340 340 341 343 342 341 340 338 336 334 336 334 332 331 331 336 335 339 337 339
331 328 328 323 312 307 307 312 311 313 317 319 319 319 316 314 324 330 335 340 342 343 344 345 345 347 345 342 340 339 338 339 339 338 340 339 336 333 333 333 331 334 333 334 333 334 336 339 339
330 327 322 317 311 307 307 312 313 316 318 318 317 321 317 317 326 330 339 341 342 343 344 344 344 346 344 341 340 339 338 338 338 339 340 338 336 334 332 331 330 330 331 332 330 333 334 338 338
327 327 323 313 308 310 312 314 315 315 318 319 319 314 324 331 328 334 340 342 341 343 344 341 344 344 342 340 339 339 338 337 336 341 341 338 337 335 332 331 330 329 330 329 330 333 333 335 336
330 323 314 310 308 311 315 316 317 314 316 317 319 314 319 331 335 338 340 341 340 342 342 344 343 344 342 340 339 339 338 337 338 338 337 340 338 337 333 332 330 328 328 328 329 332 331 332 334
321 321 309 306 308 312 316 318 317 315 317 317 317 316 320 333 333 336 340 340 341 341 343 343 338 340 342 341 340 339 339 338 336 336 335 340 339 338 337 334 331 329 328 328 329 329 329 330 330
318 315 310 309 308 309 313 319 316 316 316 317 320 314 322 329 335 338 339 341 342 342 341 342 342 338 336 338 338 339 339 339 339 337 337 341 340 339 338 338 335 331 332 330 330 328 328 328 329
318 316 308 310 308 308 313 317 317 317 316 323 324 314 317 329 336 338 339 339 340 340 341 340 341 340 339 338 332 334 336 336 335 335 335 333 336 336 335 332 334 335 333 332 331 330 327 326 327
320 311 308 308 308 310 314 313 317 320 318 319 321 322 326 332 336 335 335 336 337 336 338 340 339 339 339 339 334 330 331 332 332 332 328 327 336 336 332 329 331 334 335 335 333 332 330 329 328
313 310 310 313 313 311 312 313 314 315 316 317 319 326 328 331 333 332 331 331 334 335 336 338 341 339 338 338 338 335 333 334 334 333 333 331 331 332 331 327 327 330 329 332 335 333 331 327 325
312 306 313 312 312 312 311 312 314 313 312 316 315 319 323 325 328 330 331 332 333 335 337 338 337 340 339 338 338 337 335 335 335 335 334 333 330 331 331 330 329 329 323 328 331 331 329 329 327
307 310 311 312 310 310 310 312 311 312 314 315 318 317 318 318 322 324 326 329 332 334 336 338 339 337 339 339 338 337 335 336 335 335 335 334 332 332 331 330 330 332 330 330 331 331 331 328 328
309 310 311 312 311 311 312 311 312 312 316 316 317 315 317 318 320 323 327 329 331 331 333 336 339 339 337 338 339 338 337 336 336 336 336 334 333 333 331 330 329 329 329 328 329 329 328 328 326
311 311 311 312 312 312 309 311 311 313 317 316 315 316 317 317 318 320 322 325 327 329 330 333 335 338 339 336 336 339 338 338 338 338 337 335 334 333 331 330 329 328 328 328 327 327 327 327 327
311 306 309 310 311 310 312 307 308 314 316 314 315 316 317 317 318 318 321 321 323 324 326 327 331 335 337 338 336 335 340 338 338 338 338 336 335 333 331 331 331 330 330 329 328 327 326 325 325
306 306 299 307 309 310 309 299 307 313 313 312 314 315 316 317 318 320 321 321 322 322 322 323 325 330 333 335 338 337 336 337 336 337 338 338 335 335 333 332 331 332 331 329 328 326 325 324 324
303 296 298 300 309 308 307 300 307 312 312 311 312 313 314 315 317 318 319 319 320 321 321 320 322 324 329 334 336 338 339 338 334 334 335 337 335 334 334 333 333 332 330 329 329 327 326 324 324
295 297 298 298 304 306 303 302 306 310 310 310 311 311 312 313 314 317 318 320 319 319 319 320 320 322 326 331 334 336 338 338 336 333 332 334 337 335 333 333 332 331 330 329 328 328 328 326 325
300 297 297 301 304 302 301 301 303 307 307 307 309 310 310 311 315 317 317 317 316 316 316 317 317 319 322 327 330 332 333 335 333 333 332 332 334 335 333 331 331 331 329 329 330 327 325 325 326
300 297 296 300 303 301 300 299 303 305 306 308 308 309 310 311 312 313 314 312 312 313 314 315 316 318 319 323 328 330 331 333 333 332 332 332 331 332 331 331 330 330 328 327 327 325 323 323 325
298 296 295 296 300 303 300 297 299 304 306 307 309 310 310 309 309 310 309 309 310 310 311 313 317 316 318 322 326 328 330 331 330 332 332 330 330 331 331 330 329 329 328 326 325 325 323 319 322
294 300 299 297 295 291 298 288 297 300 301 303 304 306 307 308 309 307 306 306 306 308 310 313 315 319 323 323 325 326 325 324 328 329 330 330 331 330 330 330 329 328 328 327 326 326 325 323 319
295 301 299 298 296 294 294 290 294 298 296 299 302 305 306 306 305 304 304 303 303 305 307 310 312 311 314 315 324 326 325 327 328 327 327 327 328 329 327 327 329 328 328 327 326 325 324 324 321
301 298 297 296 294 285 291 290 290 294 297 300 302 303 303 303 303 302 302 302 301 303 303 305 305 305 305 306 308 310 309 309 311 311 312 313 313 311 309 313 315 322 325 325 325 325 324 323 321
298 293 284 282 283 282 291 289 291 298 300 301 302 303 301 301 301 300 299 298 298 299 300 300 301 300 301 302 302 304 304 303 302 304 304 305 305 303 303 306 308 311 313 314 318 322 324 324 322
294 293 284 277 280 284 291 286 291 300 303 303 301 303 301 300 299 298 297 296 296 296 297 297 297 297 298 299 299 299 300 299 298 298 299 298 298 298 300 300 302 303 304 305 307 311 315 315 319
293 289 295 288 288 284 288 292 297 300 298 298 299 299 299 299 297 296 295 295 294 293 293 295 295 295 294 295 296 295 294 294 293 293 294 294 294 294 296 297 298 299 299 300 300 303 304 306 309
295 298 287 287 280 279 285 287 289 295 296 298 297 298 299 298 296 295 294 292 292 292 292 293 293 293 292 292 293 292 290 291 291 290 290 290 291 291 292 293 295 295 296 296 297 299 301 299 299
292 290 292 291 288 281 280 285 297 296 298 297 298 298 298 296 295 294 293 292 290 291 291 290 290 291 289 290 290 288 288 288 288 287 287 288 288 288 289 290 291 292 292 293 294 293 294 294 295
296 292 292 286 284 287 286 286 297 298 299 300 300 298 298 296 295 293 292 292 290 289 289 288 288 289 287 288 287 286 286 286 286 285 285 286 286 287 287 288 288 288 288 290 289 289 289 290 290
Wind_Speed
19 12 6 5 6 1 6 6 4 5 5 6 5 7 9 11 11 6 3 6 8 11 12 12 11 11 11 8 6 4 2 5 8 10 9 8 6 7 7 8 6 5 3 3 6 7 9 3 10
14 11 5 4 5 5 8 4 8 8 8 4 2 3 2 11 9 7 8 5 9 10 10 12 10 11 11 8 6 6 3 4 6 4 8 9 5 3 4 5 3 5 4 6 5 7 10 6 10
15 7 5 2 3 7 7 4 9 8 3 4 2 3 5 7 7 4 6 7 9 10 9 12 10 9 10 9 8 7 6 5 4 3 8 8 7 3 4 3 2 2 3 4 3 6 8 10 10
6 4 4 6 8 7 9 7 8 8 5 2 2 7 7 7 3 6 8 9 9 10 9 11 9 8 7 7 8 9 8 6 2 7 10 9 9 7 4 2 3 1 2 2 2 6 7 8 5
3 4 3 4 6 6 6 7 3 5 5 7 4 6 9 6 6 6 8 7 8 10 8 10 8 9 9 9 8 7 7 7 6 6 6 11 10 10 5 5 4 3 2 1 2 4 5 6 5
4 2 5 7 8 6 5 4 3 5 4 6 3 5 8 6 4 6 7 8 8 7 8 9 8 6 8 7 7 6 7 6 4 4 3 9 12 11 12 9 4 4 3 1 2 4 5 4 4
5 5 3 2 8 7 6 2 2 3 4 8 2 6 6 8 6 5 6 7 8 5 6 6 8 9 6 6 6 6 6 6 5 5 0 4 9 9 9 10 8 7 6 4 3 4 5 5 5
6 5 4 2 8 6 4 4 2 3 7 2 4 5 10 6 5 6 6 6 6 5 5 5 6 9 9 9 7 6 5 6 7 8 6 5 8 7 7 6 7 8 9 8 7 5 4 5 5
4 6 6 3 4 7 6 4 3 1 2 1 3 8 7 6 6 6 5 6 4 5 6 6 5 7 8 8 10 8 7 6 5 7 7 7 7 10 9 7 3 10 9 11 11 10 8 6 7
5 5 3 6 4 1 3 2 2 5 6 5 6 7 6 6 5 5 6 6 8 9 8 8 9 8 8 6 7 9 9 9 9 9 10 9 9 9 7 6 9 7 5 7 10 11 9 7 7
2 9 5 1 3 3 1 2 1 4 5 4 3 7 5 3 3 4 5 6 6 7 8 9 9 9 9 8 6 5 6 6 7 11 10 9 7 7 6 5 6 7 10 8 9 9 8 9 7
7 6 4 2 1 1 4 2 4 5 4 3 3 4 1 1 3 4 5 6 7 7 8 9 11 10 11 8 7 7 6 6 6 8 11 7 6 6 6 6 7 6 5 8 7 7 9 8 6
11 8 6 4 4 4 2 8 8 7 5 5 3 3 5 4 3 5 5 6 6 8 8 9 11 12 11 11 9 9 9 7 9 9 10 8 8 7 7 7 6 6 7 7 7 7 7 8 9
2 11 11 6 8 6 6 11 3 7 8 5 5 8 6 6 6 6 7 7 7 8 9 9 11 12 12 12 13 10 9 10 9 8 9 12 9 7 8 7 7 7 7 7 7 7 7 7 8
5 9 10 11 11 12 4 15 18 14 13 12 13 11 9 9 8 9 9 9 9 9 10 9 10 11 14 15 12 10 10 9 9 9 12 12 11 11 10 8 7 7 7 8 7 8 8 8 8
10 13 16 14 15 7 6 18 11 6 8 13 10 7 9 11 12 12 12 14 14 14 13 13 8 11 13 14 12 10 10 10 9 9 9 12 13 12 10 8 8 8 7 7 7 7 7 8 8
13 15 18 18 7 11 12 14 12 5 7 13 12 10 12 15 17 17 17 15 14 12 12 12 12 13 13 13 11 12 13 10 8 9 9 12 12 13 11 9 8 9 7 8 7 7 8 8 8
17 17 18 14 9 12 17 18 16 9 11 13 16 17 16 17 21 16 15 11 11 11 11 13 11 12 11 9 9 9 9 9 7 8 9 13 10 12 12 10 11 8 7 8 9 9 8 8 8
17 13 17 13 10 5 15 18 19 17 18 18 17 17 18 20 19 15 11 6 10 11 12 12 13 13 9 7 8 8 9 8 6 6 9 10 10 10 9 8 9 9 9 11 10 10 12 8 8
18 17 15 11 3 4 15 21 20 20 20 19 19 19 20 19 16 11 9 9 10 11 11 12 12 12 10 8 7 8 8 8 9 8 8 9 9 9 7 8 8 9 6 9 11 11 7 8 6
20 20 15 15 11 13 16 24 24 24 24 21 20 20 18 15 13 8 6 6 7 9 11 11 11 11 10 9 7 7 7 6 5 6 6 10 10 9 8 8 7 7 6 6 7 8 9 7 4
19 16 14 13 11 11 5 9 13 7 10 13 15 14 15 12 2 3 4 5 7 8 9 9 9 10 7 7 7 10 8 7 6 6 2 2 4 7 8 8 7 6 4 5 5 5 5 6 8
13 9 9 11 13 16 18 13 9 11 10 9 9 11 11 4 1 2 4 5 7 8 9 9 10 12 11 12 10 4 7 4 6 5 5 5 5 6 8 7 4 5 4 6 7 7 7 7 7
7 5 4 5 8 14 16 15 14 16 18 18 2 1 4 3 3 4 4 4 6 7 8 9 11 12 13 12 12 13 13 10 7 7 6 5 5 5 9 7 7 7 4 5 5 6 8 6 7
18 12 5 6 8 11 4 14 20 2 2 4 5 2 5 5 4 4 3 5 6 8 9 8 10 12 12 12 12 11 10 10 10 7 6 6 6 6 8 9 8 6 8 7 8 6 7 7 7
22 17 7 8 10 9 13 12 13 9 11 3 2 5 8 7 6 5 4 5 5 6 8 9 10 11 12 12 13 13 13 9 9 10 8 8 7 8 11 10 10 10 10 10 9 6 6 10 9
14 19 16 13 1 5 10 10 11 7 9 8 8 7 8 7 6 6 6 5 5 6 7 8 9 10 11 11 11 12 11 11 10 11 10 8 9 9 11 11 11 11 10 11 11 8 9 9 10
12 8 10 4 7 13 14 18 13 15 16 11 11 12 10 8 8 7 6 5 5 5 6 7 8 9 10 10 10 10 11 11 10 10 11 11 11 12 12 12 12 12 12 12 12 9 10 11 9
13 10 9 7 10 8 13 14 11 9 13 14 15 12 11 10 10 9 7 6 5 5 5 6 7 8 9 9 10 10 10 10 10 10 11 11 11 12 12 12 12 13 13 13 12 13 12 12 11
18 21 18 8 10 5 6 13 4 3 6 8 11 12 12 13 12 11 9 8 6 5 5 6 6 7 8 8 9 10 10 10 10 11 11 11 11 11 12 11 12 12 13 13 14 14 14 14 13
Wind_Direction
311 323 288 247 238 227 99 84 83 73 99 46 32 358 23 36 10 33 106 96 135 131 135 153 142 137 120 123 127 140 116 98 133 117 111 106 103 118 112 103 94 99 108 120 93 60 49 88 109
309 318 228 283 259 179 86 103 84 64 77 67 75 280 37 73 51 94 130 120 144 137 145 144 138 135 126 132 146 148 134 129 126 128 139 125 116 135 116 94 119 55 76 128 69 52 36 44 126
304 274 278 285 282 60 101 92 100 106 81 23 126 17 9 45 64 75 89 142 149 136 142 120 134 129 131 150 152 158 156 160 147 204 146 129 133 138 124 124 94 88 31 12 81 39 31 26 124
325 213 207 262 94 61 99 98 108 135 121 67 351 76 109 43 44 37 130 148 157 136 134 133 132 130 151 158 167 165 168 183 191 162 150 158 154 147 147 157 94 73 123 327 311 30 16 28 115
256 251 230 126 96 111 88 96 104 103 98 81 335 94 74 81 84 112 134 156 157 141 149 156 148 155 164 169 176 192 165 183 138 162 160 169 170 157 160 165 166 207 250 305 321 343 357 16 21
275 277 233 182 123 126 114 122 145 86 93 102 110 97 74 102 119 116 142 158 147 160 151 141 156 164 170 179 185 205 170 205 205 190 124 183 171 175 168 190 191 223 242 260 305 319 329 341 1
330 287 23 62 138 151 121 140 184 81 116 75 32 74 95 96 94 127 153 154 146 173 175 169 178 177 182 194 198 209 188 196 222 249 168 158 173 187 185 182 179 193 201 198 243 295 315 317 327
308 276 210 190 182 119 119 163 43 298 81 92 345 45 79 78 113 136 153 157 138 154 240 202 203 186 193 187 200 217 221 240 225 229 189 176 196 198 201 184 194 207 203 201 204 220 259 286 293
296 255 219 173 201 113 137 192 108 59 170 124 73 51 86 102 138 146 163 175 153 215 224 236 223 227 218 212 178 198 220 232 241 223 231 180 204 192 190 204 197 199 216 206 207 206 214 231 246
275 268 278 31 23 92 111 263 121 218 172 160 152 110 103 133 159 166 200 206 211 215 223 226 249 223 235 229 202 208 204 214 215 216 210 221 229 226 227 199 195 209 231 246 213 216 212 212 256
168 255 64 133 32 358 65 217 240 246 216 68 93 115 109 120 178 207 219 242 242 223 215 214 225 248 229 224 225 216 221 212 220 222 220 220 230 232 221 239 206 222 218 241 213 221 224 242 238
243 242 252 86 79 250 226 355 241 250 72 93 104 94 127 234 223 229 240 244 228 231 235 218 208 222 242 235 212 234 224 224 221 222 220 223 225 226 237 226 233 220 231 219 216 216 219 217 267
237 244 222 181 193 237 277 253 264 252 239 193 219 226 253 224 243 247 248 250 248 248 243 235 223 218 218 236 239 224 228 218 231 224 218 220 225 222 229 234 236 236 228 234 233 241 240 242 235
327 236 229 215 229 220 241 251 185 229 262 231 223 247 234 245 255 262 247 249 244 250 252 250 235 232 217 226 236 240 228 229 221 228 222 216 226 228 227 230 233 239 240 241 241 241 243 240 242
217 219 225 236 238 242 253 249 245 241 249 243 267 252 246 254 251 250 263 276 278 276 277 268 253 240 230 222 221 236 248 230 235 222 226 226 220 232 233 233 230 231 238 246 254 252 251 258 254
221 232 247 228 226 205 224 260 259 211 226 244 237 238 244 264 264 265 268 275 279 283 286 284 255 236 244 234 225 211 225 243 230 240 234 219 227 226 233 232 235 235 233 238 235 245 248 255 256
218 237 229 242 213 231 216 265 258 316 226 251 252 253 263 269 271 272 273 276 282 298 298 281 279 264 242 235 237 231 228 217 221 229 234 241 226 226 227 231 229 231 232 235 235 233 234 243 248
228 227 246 234 190 226 242 250 258 196 220 246 262 267 269 270 271 278 285 300 329 308 291 287 280 271 259 242 233 238 234 227 209 213 223 229 235 226 231 233 236 228 226 229 234 235 238 242 247
256 256 246 246 241 259 257 262 265 263 264 260 260 261 261 264 274 283 289 337 333 305 306 296 292 281 264 234 228 228 230 227 236 227 220 221 243 244 224 231 236 229 223 234 235 243 241 239 241
237 246 244 259 248 270 270 268 268 264 256 255 256 260 263 267 273 288 3 344 328 320 323 315 301 285 270 256 238 232 233 235 212 211 221 219 228 254 243 232 237 241 228 237 247 250 251 255 253
229 235 240 249 259 231 270 273 253 249 245 245 248 254 263 272 284 304 336 337 342 343 339 328 317 297 281 261 240 232 238 247 251 234 206 198 206 222 241 243 249 251 251 239 237 241 236 243 238
236 227 244 260 263 254 161 291 299 273 252 237 233 248 259 260 29 8 351 6 11 4 355 353 353 349 326 279 239 233 227 233 236 230 216 129 186 207 219 216 228 251 261 256 248 248 246 231 241
248 249 219 239 251 269 252 267 277 241 249 240 229 248 241 78 63 81 50 36 29 19 17 18 27 29 15 22 3 295 237 354 27 30 25 29 28 26 12 345 252 244 250 256 256 251 237 242 250
220 168 193 247 260 253 245 240 259 246 234 237 212 148 98 125 120 98 73 50 41 32 35 35 42 46 40 39 39 48 53 49 47 40 39 36 48 45 26 13 13 359 304 273 265 259 257 248 243
201 188 195 215 211 247 203 217 250 90 23 177 234 281 154 170 167 129 91 61 45 39 42 46 48 50 50 50 45 48 60 61 52 47 37 29 38 26 17 10 7 8 357 356 354 318 272 263 259
196 192 187 217 222 259 195 237 239 270 243 210 208 172 174 174 157 141 115 95 75 57 47 54 51 53 53 56 55 49 43 52 49 43 38 37 27 22 13 10 6 9 6 3 358 340 357 353 334
190 223 229 282 334 275 236 225 259 211 186 198 217 207 203 177 164 163 139 119 95 75 59 52 57 56 52 52 56 55 49 48 49 42 36 31 28 15 14 11 8 8 11 8 6 359 4 353 350
229 205 205 197 223 234 242 252 252 183 215 208 223 219 194 184 175 162 150 126 97 83 75 65 57 56 55 53 51 52 46 45 43 42 37 27 23 17 15 12 8 11 11 12 8 4 8 359 357
196 221 224 222 237 248 260 255 249 258 216 197 213 207 193 192 187 173 157 139 119 96 76 68 65 54 52 52 51 49 44 42 42 44 35 26 21 18 17 13 11 12 12 11 9 5 4 357 355
212 213 210 212 193 221 273 262 152 70 270 183 193 191 190 190 187 179 169 165 149 123 98 71 66 67 49 47 56 49 47 39 36 33 33 25 25 21 16 16 19 15 12 21 10 3 358 353 353